Regional Weather Roundup
Issued by NWS Pendleton, OR

Home | Current Version | Previous Version | Text Only | Print | Product List | Glossary On
Versions: 1 2 3 4 5 6 7 8 9 10 11 12 13 14 15 16 17 18 19 20 21 22 23 24 25 26 27 28 29 30 31 32 33 34 35 36 37 38 39 40 41 42 43 44 45 46 47 48 49 50
725
ASUS46 KPDT 081425
RWRPDT
PENDLETON REGIONAL WEATHER ROUNDUP
NATIONAL WEATHER SERVICE PENDLETON OREGON
600 AM PST MON FEB 8 2016

NOTE: FAIR INDICATES FEW OR NO CLOUDS BELOW 12,000 FEET WITH NO
SIGNIFICANT WEATHER AND/OR OBSTRUCTIONS TO VISIBILITY.

# INDICATES UNOFFICIAL STATION AND DATA

WAZ520-081510-
EAST SLOPES OF WASHINGTON CASCADES

CITY            SKY/WX      TMP DP  RH  WIND    PRES   REMARKS
#BUMPING DAM    N/A         26  N/A N/A N2      N/A
#CLE ELUM HS    N/A         25  21  84  CALM    30.53S
#CLE ELUM 2NW   N/A         22  22  100 CALM    N/A
#CLE ELUM LAKE  N/A         31  29  92  CALM    30.64S
#GLENWOOD       N/A         26  25  96  CALM    30.66S
#MANASTASH CYN  N/A         24  20  84  CALM    30.50S
#NELSON 3SW     N/A         27  25  92  CALM    30.87S
#NILE           N/A         24  23  96  CALM    29.92F
#RONALD 2NW     N/A         31  N/A N/A CALM    30.39S
#SNOWDEN        N/A         29  22  75  CALM    N/A
#TEANAWAY 4NE   N/A         24  24  100 CALM    N/A
#TROUT LAKE 1NE N/A         27  26  96  CALM    30.64S
#TROUT LAKE 1E  N/A         27  26  96  CALM    30.53
$$

WAZ521-081510-
SIMCOE HIGHLANDS

CITY            SKY/WX      TMP DP  RH  WIND    PRES   REMARKS
#BICKLETON HS   N/A         32  27  82  CALM    N/A
#CENTERVILLE 1SWN/A         28  26  92  CALM    30.62R
#GOLDENDALE     N/A         30  29  96  CALM    N/A
#GOLDENDALE 1NE N/A         30  26  85  N2      N/A
#GOODNOE HILLS  N/A         37  29  72  NE2     30.49R
#LYLE 6NE       N/A         33  31  92  N3      30.60S
$$

WAZ026-081510-
KITTITAS VALLEY

CITY            SKY/WX      TMP DP  RH  WIND    PRES   REMARKS
ELLENSBURG AP   PTCLDY      24  20  84  CALM    30.62R
#ELLENSBURG CWU N/A         22  21  96  CALM    30.65S
#ELLENSBURG 3NE N/A         22  21  96  CALM    30.59S
#ELLENSBURG     N/A         24  24  100 CALM    N/A
#ELLENSBURG 1E  N/A         20  N/A N/A CALM    N/A
#KITTITAS 4N    N/A         24  21  88  E1      30.62S
#KITTITAS 3S    N/A         14  13  96  CALM    30.72S
#THORP 6N       N/A         30  27  88  CALM    30.70S
$$

WAZ027-081510-
YAKIMA VALLEY

CITY            SKY/WX      TMP DP  RH  WIND    PRES   REMARKS
YAKIMA AIRPORT  CLEAR       30  24  78  W7      30.63S
YAKIMA-VAGABOND CLEAR       31  27  85  E6      30.60R
#DONALD 2NE     N/A         34  21  58  CALM    29.46R
#GRANDVIEW      N/A         28  25  88  CALM    30.69R
#MABTON         N/A         30  29  96  CALM    30.64S
#MOXEE 2E       N/A         29  26  88  E1      30.60S
#NACHES 2SW     N/A         32  29  89  W1      30.59S
#OUTLOOK DOT    N/A         N/A N/A N/A NE2     N/A
#TERRACE HTS    N/A         27  25  92  CALM    30.64R
#TOPPENISH      N/A         30  28  92  CALM    30.58R
#WEST VALLEY    N/A         29  26  88  NW1     30.66S
#W YAKIMA       N/A         32  28  85  W2      30.67S
#WHITE SWAN 5E  N/A         27  25  92  CALM    30.67R
#WILEY CITY 3W  N/A         27  22  81  CALM    30.58R
$$

WAZ028-081510-
LOWER COLUMBIA BASIN...WASHINGTON

CITY            SKY/WX      TMP DP  RH  WIND    PRES   REMARKS
PASCO           CLEAR       28  25  88  N3      30.66S
PROSSER AWOS    N/A         27  27  100 N1      30.68R
RICHLAND AWOS   CLEAR       28  28  100 CALM    30.67R
#CONNELL 5N     N/A         30  29  96  CALM    30.66S
#ELTOPIA 6NW    N/A         33  31  92  N2      29.58R
#KAHLOTUS       N/A         29  28  96  N3      30.65S
#KENNEWICK 3S   N/A         33  30  89  CALM    30.67S
#PATERSON       N/A         32  31  96  CALM    30.65R
#PROSSER        N/A         33  30  89  CALM    30.66S
#SAGEMOOR 2W    N/A         32  29  89  CALM    30.51S
#TOUCHET 2S     N/A         26  24  92  CALM    30.66R
#WEST PASCO     N/A         28  25  88  CALM    30.71S
$$

WAZ029-081510-
FOOTHILLS OF THE BLUES...WASHINGTON

CITY            SKY/WX      TMP DP  RH  WIND    PRES   REMARKS
WALLA WALLA AP  CLEAR       32  30  92  S8      30.61S
#CLYDE 6NW      N/A         28  26  92  CALM    30.65R
#DAYTON SCHOOL  N/A         30  24  78  CALM    30.58S
#LOWDEN 2SE     N/A         27  26  96  CALM    30.61S
#PLEASANT VIEW 1N/A         34  31  89  SW1     30.68S
#PRESCOTT       N/A         28  27  96  CALM    30.65R
#WHITMAN COLLEGEN/A         32  30  92  SE1     30.70R
#WAITSBURG 5S   N/A         32  30  92  CALM    30.73S
#WAITSBURG 8N   N/A         27  12  53  CALM    30.47S
#WALLA WALLA U  N/A         32  30  92  CALM    30.66R
#WHITMAN MISSIONN/A         30  28  92  CALM    30.68S
$$

WAZ030-081510-
BLUE MOUNTAINS...WASHINGTON

CITY            SKY/WX      TMP DP  RH  WIND    PRES   REMARKS
#DIXIE 5SE      N/A         44  33  65  CALM    30.47S
#SKI BLUEWOOD   N/A         32  30  92  S1      30.55S
$$

ORZ009-041-WAZ024-081510-
COLUMBIA RIVER GORGE

CITY            SKY/WX      TMP DP  RH  WIND    PRES   REMARKS
HOOD RIVER AP   CLEAR       32  32  100 S3      30.63S
THE DALLES AP   CLEAR       31  28  88  CALM    30.65R
#ARLINGTON AIRPON/A         35  32  89  CALM    30.67R
#ARLINGTON HS   N/A         31  28  88  SW2     30.58R
#CELILO DOT     N/A         36  31  82  CALM    N/A
#LYLE           N/A         36  34  92  CALM    30.67R
#MARYHILL 2W    N/A         34  34  100 CALM    N/A
#MOSIER 1S      N/A         32  26  78  CALM    30.61S
#RUFUS DOT      N/A         35  33  92  S7      N/A

$$

ORZ510-081510-
NORTH CENTRAL OREGON

CITY            SKY/WX      TMP DP  RH  WIND    PRES   REMARKS
#CHENOWITH 1W   N/A         34  33  96  E5      N/A
#COW CYN RST AREN/A         42  37  82  CALM    N/A
#GRASS VALLEY 1SN/A         31  29  92  E1      30.68R
#KENT DOT       N/A         35  31  85  N3      N/A
#MAUPIN SCHOOL  N/A         32  28  85  CALM    30.63R
#MORO SCHOOL    N/A         29  29  100 CALM    30.58R
#SHANIKO 5WSW   N/A         42  32  67  CALM    N/A
#SHANIKO 4NW    N/A         42  36  79  SW2     30.52S
#TYGH VALLEY 2NEN/A         30  28  92  CALM    30.63R
#WAPANITIA AIRPON/A         29  27  92  CALM    30.64S
#WASCO DOT      N/A         29  27  92  E3      N/A
#WASCO 5NE      N/A         28  26  92  CALM    30.65R
$$

ORZ511-081510-
CENTRAL OREGON

CITY            SKY/WX      TMP DP  RH  WIND    PRES   REMARKS
BEND AIRPORT    CLEAR       32  30  92  CALM    30.56R
MADRAS AIRPORT  CLOUDY      28  28  100 CALM    30.58R FOG
PRINEVILLE AP   CLEAR       37  34  89  SE5     30.56R
REDMOND AIRPORT CLEAR       31  28  88  E6      30.54R
#ASHWOOD SCHOOL N/A         29  28  96  CALM    30.49R
#BEND 6E        N/A         36  29  75  CALM    30.57R
#BEND 1SW       N/A         32  30  92  N1      N/A
#BEND-KIM LN    N/A         36  33  89  SW5     30.51R
#LAKE BILLY CHINN/A         34  N/A N/A CALM    30.63R
#MADRAS         N/A         31  31  100 SE2     N/A
#POWELL BUTTE 3EN/A         41  34  76  E5      N/A
#PRINEVILLE 3N  N/A         32  30  92  NE3     30.60R
#WARM SPRINGS   N/A         29  27  92  CALM    30.54R

$$


ORZ509-081510-
EAST SLOPES OF OREGON CASCADES

CITY            SKY/WX      TMP DP  RH  WIND    PRES   REMARKS
SISTERS AWOS    N/A         25  23  92  CALM    30.46S
#BLUE BOX PASS  N/A         43  N/A N/A N1      N/A
#BLACK BUTTE RNCN/A         30  28  92  CALM    30.61R
#CAMP SHERMAN   N/A         25  22  88  CALM    30.73R
#LA PINE 4NW    N/A         22  19  88  CALM    30.68R
#LAVA BUTTE DOT N/A         35  32  89  SE2     N/A
#SISTERS AIRPOR N/A         25  25  100 N1      30.17S
#SISTERS ODOT   N/A         26  N/A N/A CALM    N/A
#SISTERS 3N     N/A         25  19  78  CALM    30.50S
#SUNRIVER       N/A         28  27  96  CALM    30.66R
#SUTTLE LK DOT  N/A         25  25  100 W17G25  N/A    WCI 12
#TUMALO 3W      N/A         40  36  85  N2      30.42S
#WANOGA BUTTE D N/A         43  29  57  CALM    N/A

$$

ORZ044-081510-
LOWER COLUMBIA BASIN...OREGON

CITY            SKY/WX      TMP DP  RH  WIND    PRES   REMARKS
HERMISTON       CLEAR       27  26  96  SE3     30.63R
#BOARDMAN SCHOOLN/A         28  26  92  CALM    30.66R
#BOARDMAN 8SW   N/A         32  31  96  CALM    30.66R
#ECHO 8SW       N/A         30  24  78  SW1     30.64R
#I-84 EX 198 DOTN/A         34  33  96  NE2     N/A
#IONE SCHOOL    N/A         28  17  63  CALM    30.57S
#UMATILLA SCHOOLN/A         26  26  100 CALM    30.71R
#UMATILLA       N/A         32  28  85  CALM    30.60R
$$

ORZ507-081510-
NORTHERN FOOTHILLS OF THE BLUES

CITY            SKY/WX      TMP DP  RH  WIND    PRES   REMARKS
PENDLETON AIRPT CLEAR       30  29  96  E5      30.59R
#ADAMS 3WNW     N/A         29  27  92  CALM    30.64S
#ATHENA         N/A         31  28  88  CALM    30.67R
#CAYUSE         N/A         32  30  92  E2      30.64R
#HELIX SCHOOL   N/A         32  29  89  CALM    30.63S
#HELIX 3N       N/A         32  30  92  N6      30.52R
#HOLDMAN 5SE    N/A         43  40  89  CALM    30.33S
#HOLDMAN 6E     N/A         31  29  92  CALM    30.44S
#M-F GROVE ELEM N/A         30  27  88  CALM    30.58S
#M-FREEWATER 5SEN/A         30  28  92  CALM    30.58S
#PDT AQUATIC CTRN/A         29  21  72  CALM    30.61S
#PDT SUNRIDGE   N/A         26  25  96  CALM    30.63R
#PENDLETON 7NW  N/A         28  24  85  CALM    29.34S
#PILOT ROCK     N/A         29  21  72  CALM    30.57R
#TUTUILLA       N/A         27  25  92  CALM    30.64S
#UMAPINE 2E     N/A         30  28  92  CALM    30.60S
#WESTON SCHOOL  N/A         33  29  85  CALM    30.53F

$$

ORZ508-081510-
SOUTHERN FOOTHILLS OF THE BLUES

CITY            SKY/WX      TMP DP  RH  WIND    PRES   REMARKS
LEXINGTON       CLEAR       30  30  100 CALM    30.63R
#CONDON SCHOOL  N/A         35  33  92  VRB5    30.47R
#CONDON 5W      N/A         38  31  76  CALM    30.51S
#FOSSIL SCHOOL  N/A         33  31  92  CALM    30.46R
#HEPPNER EOC    N/A         31  29  92  E6      30.57R
#LEXINGTON 2SE  N/A         27  24  88  CALM    30.55R
#MIKKALO        N/A         32  29  89  E1      30.67R
#OLEX 4N        N/A         34  31  89  CALM    30.58R
#RUGGS 5NE      N/A         34  32  92  CALM    30.72R

$$

ORZ502-503-081510-
BLUE MOUNTAINS

CITY            SKY/WX      TMP DP  RH  WIND    PRES   REMARKS
MEACHAM         CLEAR       28  25  88  CALM    30.56S
#BATTLE MTN DOT N/A         31  31  100 S10     N/A
#LADD CYN SMT   N/A         28  25  88  SE2     N/A
#LADD CREEK ODOTN/A         30  28  92  SW6     N/A
#LONG CREEK HS  N/A         32  32  100 CALM    N/A
#N POWDER DOT   N/A         21  20  96  CALM    N/A
#PIKES PEAK     N/A         47  30  51  CALM    27.99S
#TOLLGATE       N/A         33  31  92  CALM    30.35S
#TROY SCHOOL    N/A         31  29  92  CALM    30.58S
#UKIAH          N/A         23  22  96  CALM    30.60R
#WESTON 4E      N/A         42  33  70  E9      30.55S
$$

ORZ505-081510-
JOHN DAY BASIN

CITY            SKY/WX      TMP DP  RH  WIND    PRES   REMARKS
JOHN DAY        CLEAR       36  32  85  E9      30.58S
#DAYVILLE SCHOOLN/A         32  28  85  CALM    30.53S
#MITCHELL       N/A         33  31  92  CALM    30.67R
#MITCHELL 8NW   N/A         40  34  79  CALM    30.76R
#MONUMENT HS    N/A         29  26  88  CALM    30.54R
#MT. VERNON 5SE N/A         46  32  58  E5      30.52S
#SPRAY SCHOOL   N/A         30  N/A N/A CALM    N/A
#WINLOCK        N/A         39  31  73  W3      30.48S
$$

ORZ506-081510-
OCHOCO AND JOHN DAY HIGHLANDS

CITY            SKY/WX      TMP DP  RH  WIND    PRES   REMARKS
#BUCK CREEK DOT N/A         31  31  100 S6      N/A
#HORSE RIDGE DO N/A         36  32  85  SE8     N/A
#PAULINA SCHOOL N/A         52  39  61  CALM    30.50S
#PINE MTN OBS   N/A         40  32  73  S9      N/A
#PRAIRIE CITY   N/A         26  22  85  CALM    30.57S
#SENECA         N/A         16  N/A N/A CALM    N/A
#SENECA 9NW     N/A         17  16  96  CALM    30.75R
$$

ORZ049-081510-
GRANDE RONDE VALLEY

CITY            SKY/WX      TMP DP  RH  WIND    PRES   REMARKS
LA GRANDE       CLEAR       28  23  81  N6      30.62R
#COVE           N/A         29  28  96  CALM    30.61R
#COVE SCHOOL    N/A         29  27  92  CALM    30.59R
#COVE 6NW       N/A         25  23  92  CALM    30.53R
#ELGIN 3N       N/A         24  18  77  CALM    30.57R
#ELGIN 1E       N/A         27  23  85  CALM    N/A
#IMBLER SCHOOL  N/A         28  26  92  N3      30.55R
#ISLAND CITY 4N N/A         40  39  96  CALM    30.44S
#LADD CYN DOT   N/A         34  30  85  CALM    N/A
#UNION 1S       N/A         34  30  85  S7      30.62R
$$

ORZ050-081510-
WALLOWA COUNTY

CITY            SKY/WX      TMP DP  RH  WIND    PRES   REMARKS
JOSEPH AIRPORT  CLEAR       27  27  100 CALM    30.61R
#ENTERPRISE AP  N/A         25  21  84  CALM    30.48R
#ENTERPRISE HS  N/A         23  20  88  CALM    30.57R
#IMNAHA SCHOOL  N/A         30  26  85  S2      30.61S
#JOSEPH 3N      N/A         22  17  81  CALM    30.56R
#JOSEPH 3W      N/A         N/A N/A N/A CALM    30.34S
#LOSTINE        N/A         20  18  92  CALM    30.57R
#MT HOWARD 8000 N/A         42  28  57  SW3     30.61R
#PROMISE 1S     N/A         30  28  92  CALM    30.82R
#WALLOWA SCHOOL N/A         20  19  96  CALM    30.58R



$$



USA.gov is the U.S. government's official web portal to all federal, state and local government web resources and services.